Time,TemperatureF,DewpointF,PressureIn,WindDirection,WindDirectionDegrees,WindSpeedMPH,WindSpeedGustMPH,Humidity,HourlyPrecipIn,Conditions,Clouds,dailyrainin,SoftwareType,DateUTC
2013-03-28 00:00:00,28.8,21.6,30.31,SSE,162,0.0,1.0,74,0.00,,CLR,0.00,VWS V14.01,2013-03-28 04:00:00,
2013-03-28 00:05:00,29.4,21.8,30.31,SW,226,0.0,0.0,73,0.00,,CLR,0.00,VWS V14.01,2013-03-28 04:05:00,
2013-03-28 00:10:00,29.6,21.4,30.31,SW,226,0.0,0.0,71,0.00,,CLR,0.00,VWS V14.01,2013-03-28 04:10:00,
2013-03-28 00:15:00,30.1,21.9,30.30,SW,225,0.0,0.0,71,0.00,,CLR,0.00,VWS V14.01,2013-03-28 04:15:00,
2013-03-28 00:20:00,30.2,21.6,30.30,WNW,288,0.0,1.0,70,0.00,,CLR,0.00,VWS V14.01,2013-03-28 04:20:00,
2013-03-28 00:25:00,30.1,21.9,30.30,NW,313,0.0,1.0,71,0.00,,CLR,0.00,VWS V14.01,2013-03-28 04:25:00,
2013-03-28 00:30:00,30.2,21.9,30.30,WNW,302,0.0,1.0,71,0.00,,CLR,0.00,VWS V14.01,2013-03-28 04:30:00,
2013-03-28 00:35:00,29.9,22.3,30.30,WSW,255,0.0,1.0,73,0.00,,CLR,0.00,VWS V14.01,2013-03-28 04:35:00,
2013-03-28 00:40:00,29.8,22.2,30.30,NW,316,0.0,1.0,73,0.00,,CLR,0.00,VWS V14.01,2013-03-28 04:40:00,
2013-03-28 00:45:00,30.0,22.1,30.30,WSW,249,0.0,0.0,72,0.00,,CLR,0.00,VWS V14.01,2013-03-28 04:45:00,
2013-03-28 00:50:00,31.1,22.5,30.30,NW,321,0.0,0.0,70,0.00,,CLR,0.00,VWS V14.01,2013-03-28 04:50:00,
2013-03-28 00:55:00,30.7,22.1,30.30,NW,321,0.0,0.0,70,0.00,,CLR,0.00,VWS V14.01,2013-03-28 04:55:00,
2013-03-28 01:00:00,31.2,21.9,30.30,WNW,302,0.0,0.0,68,0.00,,CLR,0.00,VWS V14.01,2013-03-28 05:00:00,
2013-03-28 01:05:00,31.6,21.2,30.30,NW,314,0.0,1.0,65,0.00,,CLR,0.00,VWS V14.01,2013-03-28 05:05:00,
2013-03-28 01:10:00,31.7,22.0,30.30,NW,306,1.0,1.0,67,0.00,,CLR,0.00,VWS V14.01,2013-03-28 05:10:00,
2013-03-28 01:15:00,32.5,21.7,30.29,NW,307,2.0,2.0,64,0.00,,CLR,0.00,VWS V14.01,2013-03-28 05:15:00,
2013-03-28 01:20:00,33.2,21.6,30.29,WNW,300,0.0,2.0,62,0.00,,CLR,0.00,VWS V14.01,2013-03-28 05:20:00,
2013-03-28 01:25:00,33.7,21.7,30.29,NW,319,1.0,3.0,61,0.00,,CLR,0.00,VWS V14.01,2013-03-28 05:25:00,
2013-03-28 01:30:00,33.9,21.5,30.29,WNW,298,2.0,3.0,60,0.00,,CLR,0.00,VWS V14.01,2013-03-28 05:30:00,
2013-03-28 01:35:00,33.7,21.7,30.29,NW,318,0.0,1.0,61,0.00,,CLR,0.00,VWS V14.01,2013-03-28 05:35:00,
2013-03-28 01:40:00,32.9,21.7,30.29,SW,231,1.0,1.0,63,0.00,,CLR,0.00,VWS V14.01,2013-03-28 05:40:00,
2013-03-28 01:45:00,32.5,20.9,30.29,WNW,294,0.0,1.0,62,0.00,,CLR,0.00,VWS V14.01,2013-03-28 05:45:00,
2013-03-28 01:50:00,32.5,21.7,30.29,SW,221,0.0,0.0,64,0.00,,CLR,0.00,VWS V14.01,2013-03-28 05:50:00,
2013-03-28 01:55:00,32.7,21.1,30.29,WNW,302,3.0,5.0,62,0.00,,CLR,0.00,VWS V14.01,2013-03-28 05:55:00,
2013-03-28 02:00:00,33.1,21.5,30.29,NW,313,0.0,0.0,62,0.00,,CLR,0.00,VWS V14.01,2013-03-28 06:00:00,
2013-03-28 02:05:00,32.1,20.9,30.29,SW,229,0.0,1.0,63,0.00,,CLR,0.00,VWS V14.01,2013-03-28 06:05:00,
2013-03-28 02:10:00,31.3,21.3,30.29,SW,236,1.0,2.0,66,0.00,,CLR,0.00,VWS V14.01,2013-03-28 06:10:00,
2013-03-28 02:15:00,30.9,21.6,30.29,SW,229,1.0,1.0,68,0.00,,CLR,0.00,VWS V14.01,2013-03-28 06:15:00,
2013-03-28 02:20:00,30.8,21.5,30.29,SW,229,1.0,2.0,68,0.00,,CLR,0.00,VWS V14.01,2013-03-28 06:20:00,
2013-03-28 02:25:00,30.5,21.6,30.29,SW,218,0.0,1.0,69,0.00,,CLR,0.00,VWS V14.01,2013-03-28 06:25:00,
2013-03-28 02:30:00,29.9,21.7,30.29,SSW,212,0.0,1.0,71,0.00,,CLR,0.00,VWS V14.01,2013-03-28 06:30:00,
2013-03-28 02:35:00,29.6,21.4,30.29,SW,223,1.0,1.0,71,0.00,,CLR,0.00,VWS V14.01,2013-03-28 06:35:00,
2013-03-28 02:40:00,29.5,21.3,30.29,SW,225,0.0,0.0,71,0.00,,CLR,0.00,VWS V14.01,2013-03-28 06:40:00,
2013-03-28 02:45:00,29.4,21.5,30.29,SW,232,0.0,0.0,72,0.00,,CLR,0.00,VWS V14.01,2013-03-28 06:45:00,
2013-03-28 02:50:00,29.0,21.8,30.29,SW,232,0.0,0.0,74,0.00,,CLR,0.00,VWS V14.01,2013-03-28 06:50:00,
2013-03-28 02:55:00,28.5,21.6,30.29,SE,139,1.0,1.0,75,0.00,,CLR,0.00,VWS V14.01,2013-03-28 06:55:00,
2013-03-28 03:00:00,27.9,21.6,30.29,South,170,1.0,1.0,77,0.00,,CLR,0.00,VWS V14.01,2013-03-28 07:00:00,
2013-03-28 03:05:00,27.9,21.3,30.29,SSE,159,0.0,0.0,76,0.00,,CLR,0.00,VWS V14.01,2013-03-28 07:05:00,
2013-03-28 03:10:00,28.0,21.4,30.28,South,188,0.0,0.0,76,0.00,,CLR,0.00,VWS V14.01,2013-03-28 07:10:00,
2013-03-28 03:15:00,27.8,21.5,30.28,SSE,166,0.0,2.0,77,0.00,,CLR,0.00,VWS V14.01,2013-03-28 07:15:00,
2013-03-28 03:20:00,27.6,21.4,30.28,SSW,197,0.0,0.0,77,0.00,,CLR,0.00,VWS V14.01,2013-03-28 07:20:00,
2013-03-28 03:25:00,27.8,21.5,30.28,SW,226,0.0,2.0,77,0.00,,CLR,0.00,VWS V14.01,2013-03-28 07:25:00,
2013-03-28 03:30:00,27.7,21.4,30.28,SW,221,0.0,1.0,77,0.00,,CLR,0.00,VWS V14.01,2013-03-28 07:30:00,
2013-03-28 03:35:00,27.4,21.5,30.28,SSW,210,0.0,1.0,78,0.00,,CLR,0.00,VWS V14.01,2013-03-28 07:35:00,
2013-03-28 03:40:00,27.5,21.5,30.28,SW,221,1.0,1.0,78,0.00,,CLR,0.00,VWS V14.01,2013-03-28 07:40:00,
2013-03-28 03:45:00,27.6,21.6,30.29,SW,224,0.0,0.0,78,0.00,,CLR,0.00,VWS V14.01,2013-03-28 07:45:00,
2013-03-28 03:50:00,27.2,21.9,30.29,SW,222,0.0,0.0,80,0.00,,CLR,0.00,VWS V14.01,2013-03-28 07:50:00,
2013-03-28 03:55:00,26.8,21.8,30.28,SW,219,0.0,1.0,81,0.00,,CLR,0.00,VWS V14.01,2013-03-28 07:55:00,
2013-03-28 04:00:00,26.6,21.6,30.28,SSW,210,0.0,0.0,81,0.00,,CLR,0.00,VWS V14.01,2013-03-28 08:00:00,
2013-03-28 04:05:00,26.3,21.3,30.28,SSW,210,0.0,0.0,81,0.00,,CLR,0.00,VWS V14.01,2013-03-28 08:05:00,
2013-03-28 04:10:00,26.3,21.3,30.28,SW,219,0.0,0.0,81,0.00,,CLR,0.00,VWS V14.01,2013-03-28 08:10:00,
2013-03-28 04:15:00,26.3,21.3,30.28,SSW,212,0.0,1.0,81,0.00,,CLR,0.00,VWS V14.01,2013-03-28 08:15:00,
2013-03-28 04:20:00,26.0,21.3,30.28,SSW,193,0.0,0.0,82,0.00,,CLR,0.00,VWS V14.01,2013-03-28 08:20:00,
2013-03-28 04:25:00,26.3,21.3,30.28,SW,236,0.0,0.0,81,0.00,,CLR,0.00,VWS V14.01,2013-03-28 08:25:00,
2013-03-28 04:30:00,26.3,21.3,30.28,SW,236,0.0,0.0,81,0.00,,CLR,0.00,VWS V14.01,2013-03-28 08:30:00,
2013-03-28 04:35:00,25.9,21.2,30.28,WSW,250,0.0,0.0,82,0.00,,CLR,0.00,VWS V14.01,2013-03-28 08:35:00,
2013-03-28 04:40:00,25.8,21.4,30.28,SW,229,0.0,0.0,83,0.00,,CLR,0.00,VWS V14.01,2013-03-28 08:40:00,
2013-03-28 04:45:00,25.6,21.2,30.28,NNW,347,0.0,0.0,83,0.00,,CLR,0.00,VWS V14.01,2013-03-28 08:45:00,
2013-03-28 04:50:00,25.4,21.2,30.28,WSW,245,0.0,1.0,84,0.00,,CLR,0.00,VWS V14.01,2013-03-28 08:50:00,
2013-03-28 04:55:00,25.2,21.0,30.28,SW,229,0.0,0.0,84,0.00,,CLR,0.00,VWS V14.01,2013-03-28 08:55:00,
2013-03-28 05:00:00,25.2,21.0,30.29,SSW,194,0.0,0.0,84,0.00,,CLR,0.00,VWS V14.01,2013-03-28 09:00:00,
2013-03-28 05:05:00,25.2,21.0,30.29,SW,236,0.0,1.0,84,0.00,,CLR,0.00,VWS V14.01,2013-03-28 09:05:00,
2013-03-28 05:10:00,25.3,20.9,30.29,SW,235,0.0,0.0,83,0.00,,CLR,0.00,VWS V14.01,2013-03-28 09:10:00,
2013-03-28 05:15:00,25.4,21.2,30.28,SW,225,0.0,0.0,84,0.00,,CLR,0.00,VWS V14.01,2013-03-28 09:15:00,
2013-03-28 05:20:00,25.3,21.1,30.28,WSW,245,0.0,2.0,84,0.00,,CLR,0.00,VWS V14.01,2013-03-28 09:20:00,
2013-03-28 05:25:00,25.2,21.0,30.28,SSE,167,3.0,3.0,84,0.00,,CLR,0.00,VWS V14.01,2013-03-28 09:25:00,
2013-03-28 05:30:00,25.2,21.0,30.29,South,169,1.0,1.0,84,0.00,,CLR,0.00,VWS V14.01,2013-03-28 09:30:00,
2013-03-28 05:35:00,25.0,21.1,30.29,SSW,212,0.0,0.0,85,0.00,,CLR,0.00,VWS V14.01,2013-03-28 09:35:00,
2013-03-28 05:40:00,25.1,20.7,30.29,SW,228,0.0,2.0,83,0.00,,CLR,0.00,VWS V14.01,2013-03-28 09:40:00,
2013-03-28 05:45:00,25.1,21.0,30.30,SW,215,0.0,0.0,84,0.00,,CLR,0.00,VWS V14.01,2013-03-28 09:45:00,
2013-03-28 05:50:00,25.1,21.0,30.30,South,169,0.0,1.0,84,0.00,,CLR,0.00,VWS V14.01,2013-03-28 09:50:00,
2013-03-28 05:55:00,25.3,21.1,30.30,SSW,192,0.0,0.0,84,0.00,,CLR,0.00,VWS V14.01,2013-03-28 09:55:00,
2013-03-28 06:00:00,25.2,21.0,30.30,East,85,1.0,1.0,84,0.00,,CLR,0.00,VWS V14.01,2013-03-28 10:00:00,
2013-03-28 06:05:00,25.1,21.0,30.30,SW,229,0.0,0.0,84,0.00,,CLR,0.00,VWS V14.01,2013-03-28 10:05:00,
2013-03-28 06:10:00,25.0,20.9,30.30,WNW,285,0.0,0.0,84,0.00,,CLR,0.00,VWS V14.01,2013-03-28 10:10:00,
2013-03-28 06:15:00,25.0,20.9,30.30,SE,134,0.0,2.0,84,0.00,,CLR,0.00,VWS V14.01,2013-03-28 10:15:00,
2013-03-28 06:20:00,24.8,20.7,30.30,SSW,210,0.0,0.0,84,0.00,,CLR,0.00,VWS V14.01,2013-03-28 10:20:00,
2013-03-28 06:25:00,24.8,20.7,30.30,SE,129,0.0,1.0,84,0.00,,CLR,0.00,VWS V14.01,2013-03-28 10:25:00,
2013-03-28 06:30:00,24.6,20.7,30.30,ENE,67,0.0,1.0,85,0.00,,CLR,0.00,VWS V14.01,2013-03-28 10:30:00,
2013-03-28 06:35:00,24.2,20.4,30.31,ENE,67,0.0,0.0,85,0.00,,CLR,0.00,VWS V14.01,2013-03-28 10:35:00,
2013-03-28 06:40:00,24.4,20.5,30.31,SW,226,0.0,0.0,85,0.00,,CLR,0.00,VWS V14.01,2013-03-28 10:40:00,
2013-03-28 06:45:00,24.5,20.4,30.31,SSW,207,0.0,1.0,84,0.00,,CLR,0.00,VWS V14.01,2013-03-28 10:45:00,
2013-03-28 06:50:00,24.7,20.6,30.31,SW,217,0.0,0.0,84,0.00,,CLR,0.00,VWS V14.01,2013-03-28 10:50:00,
2013-03-28 06:55:00,24.3,20.5,30.31,SW,217,0.0,0.0,85,0.00,,CLR,0.00,VWS V14.01,2013-03-28 10:55:00,
2013-03-28 07:00:00,24.0,20.4,30.31,SW,217,0.0,0.0,86,0.00,,CLR,0.00,VWS V14.01,2013-03-28 11:00:00,
2013-03-28 07:05:00,23.8,20.2,30.31,ESE,108,0.0,1.0,86,0.00,,CLR,0.00,VWS V14.01,2013-03-28 11:05:00,
2013-03-28 07:10:00,23.7,20.1,30.32,ESE,108,0.0,0.0,86,0.00,,CLR,0.00,VWS V14.01,2013-03-28 11:10:00,
2013-03-28 07:15:00,23.9,20.1,30.32,SW,219,0.0,0.0,85,0.00,,CLR,0.00,VWS V14.01,2013-03-28 11:15:00,
2013-03-28 07:20:00,23.8,20.0,30.32,SW,229,1.0,2.0,85,0.00,,CLR,0.00,VWS V14.01,2013-03-28 11:20:00,
2013-03-28 07:25:00,23.8,20.2,30.32,NW,316,0.0,0.0,86,0.00,,CLR,0.00,VWS V14.01,2013-03-28 11:25:00,
2013-03-28 07:30:00,23.6,20.3,30.32,SW,233,0.0,0.0,87,0.00,,CLR,0.00,VWS V14.01,2013-03-28 11:30:00,
2013-03-28 07:35:00,23.7,20.4,30.32,NW,311,0.0,1.0,87,0.00,,CLR,0.00,VWS V14.01,2013-03-28 11:35:00,
2013-03-28 07:40:00,23.9,20.6,30.32,NW,310,0.0,2.0,87,0.00,,CLR,0.00,VWS V14.01,2013-03-28 11:40:00,
2013-03-28 07:45:00,24.3,20.7,30.33,NW,310,0.0,0.0,86,0.00,,CLR,0.00,VWS V14.01,2013-03-28 11:45:00,
2013-03-28 07:50:00,24.3,21.0,30.33,NW,313,0.0,1.0,87,0.00,,CLR,0.00,VWS V14.01,2013-03-28 11:50:00,
2013-03-28 07:55:00,24.5,20.9,30.33,SW,225,0.0,1.0,86,0.00,,CLR,0.00,VWS V14.01,2013-03-28 11:55:00,
2013-03-28 08:00:00,25.2,21.6,30.33,SE,139,0.0,2.0,86,0.00,,CLR,0.00,VWS V14.01,2013-03-28 12:00:00,
2013-03-28 08:05:00,25.8,21.9,30.33,NE,36,2.0,2.0,85,0.00,,CLR,0.00,VWS V14.01,2013-03-28 12:05:00,
2013-03-28 08:10:00,26.6,23.0,30.33,ENE,65,0.0,0.0,86,0.00,,CLR,0.00,VWS V14.01,2013-03-28 12:10:00,
2013-03-28 08:15:00,27.5,22.7,30.33,SW,231,0.0,1.0,82,0.00,,CLR,0.00,VWS V14.01,2013-03-28 12:15:00,
2013-03-28 08:20:00,28.2,23.1,30.33,SE,145,0.0,0.0,81,0.00,,CLR,0.00,VWS V14.01,2013-03-28 12:20:00,
2013-03-28 08:25:00,29.0,23.6,30.34,SSE,150,0.0,0.0,80,0.00,,CLR,0.00,VWS V14.01,2013-03-28 12:25:00,
2013-03-28 08:30:00,30.3,24.3,30.34,SE,139,1.0,1.0,78,0.00,,CLR,0.00,VWS V14.01,2013-03-28 12:30:00,
2013-03-28 08:35:00,31.4,24.7,30.34,SE,139,0.0,0.0,76,0.00,,CLR,0.00,VWS V14.01,2013-03-28 12:35:00,
2013-03-28 08:40:00,32.8,24.8,30.34,South,176,0.0,0.0,72,0.00,,CLR,0.00,VWS V14.01,2013-03-28 12:40:00,
2013-03-28 08:45:00,33.4,26.7,30.34,NNE,32,1.0,1.0,76,0.00,,CLR,0.00,VWS V14.01,2013-03-28 12:45:00,
2013-03-28 08:50:00,34.2,27.1,30.34,NNE,31,0.0,0.0,75,0.00,,CLR,0.00,VWS V14.01,2013-03-28 12:50:00,
2013-03-28 08:55:00,35.3,27.2,30.34,WSW,239,0.0,0.0,72,0.00,,CLR,0.00,VWS V14.01,2013-03-28 12:55:00,
2013-03-28 09:00:00,35.8,27.0,30.34,NNE,33,1.0,1.0,70,0.00,,CLR,0.00,VWS V14.01,2013-03-28 13:00:00,
2013-03-28 09:05:00,36.7,25.3,30.34,NNW,328,0.0,0.0,63,0.00,,CLR,0.00,VWS V14.01,2013-03-28 13:05:00,
2013-03-28 09:10:00,38.0,25.4,30.34,SW,223,0.0,1.0,60,0.00,,CLR,0.00,VWS V14.01,2013-03-28 13:10:00,
2013-03-28 09:15:00,38.9,25.0,30.34,NNW,342,1.0,2.0,57,0.00,,CLR,0.00,VWS V14.01,2013-03-28 13:15:00,
2013-03-28 09:20:00,39.1,23.9,30.35,SW,235,0.0,3.0,54,0.00,,CLR,0.00,VWS V14.01,2013-03-28 13:20:00,
2013-03-28 09:25:00,39.8,25.0,30.34,NW,318,1.0,2.0,55,0.00,,CLR,0.00,VWS V14.01,2013-03-28 13:25:00,
2013-03-28 09:30:00,39.9,22.3,30.34,West,277,3.0,6.0,49,0.00,,CLR,0.00,VWS V14.01,2013-03-28 13:30:00,
2013-03-28 09:35:00,40.4,23.2,30.35,NNW,329,3.0,4.0,50,0.00,,CLR,0.00,VWS V14.01,2013-03-28 13:35:00,
2013-03-28 09:40:00,40.5,21.9,30.35,NW,305,7.0,8.0,47,0.00,,CLR,0.00,VWS V14.01,2013-03-28 13:40:00,
2013-03-28 09:45:00,40.9,21.7,30.35,WNW,300,3.0,8.0,46,0.00,,CLR,0.00,VWS V14.01,2013-03-28 13:45:00,
2013-03-28 09:50:00,40.9,22.2,30.35,West,263,0.0,2.0,47,0.00,,CLR,0.00,VWS V14.01,2013-03-28 13:50:00,
2013-03-28 09:55:00,41.7,21.9,30.35,WNW,293,2.0,6.0,45,0.00,,CLR,0.00,VWS V14.01,2013-03-28 13:55:00,
2013-03-28 10:00:00,41.4,21.7,30.35,WNW,298,5.0,9.0,45,0.00,,CLR,0.00,VWS V14.01,2013-03-28 14:00:00,
2013-03-28 10:05:00,41.2,22.0,30.35,WNW,297,2.0,7.0,46,0.00,,CLR,0.00,VWS V14.01,2013-03-28 14:05:00,
2013-03-28 10:10:00,42.0,22.7,30.35,NW,305,1.0,2.0,46,0.00,,CLR,0.00,VWS V14.01,2013-03-28 14:10:00,
2013-03-28 10:15:00,42.3,22.0,30.35,NW,313,4.0,8.0,44,0.00,,CLR,0.00,VWS V14.01,2013-03-28 14:15:00,
2013-03-28 10:20:00,42.6,22.8,30.35,NW,311,3.0,6.0,45,0.00,,CLR,0.00,VWS V14.01,2013-03-28 14:20:00,
2013-03-28 10:25:00,43.8,22.8,30.34,NW,308,7.0,8.0,43,0.00,,CLR,0.00,VWS V14.01,2013-03-28 14:25:00,
2013-03-28 10:30:00,43.7,21.6,30.34,NW,308,9.0,14.0,41,0.00,,CLR,0.00,VWS V14.01,2013-03-28 14:30:00,
2013-03-28 10:35:00,43.3,21.2,30.34,NE,34,3.0,4.0,41,0.00,,CLR,0.00,VWS V14.01,2013-03-28 14:35:00,
2013-03-28 10:40:00,43.7,21.6,30.35,NW,324,4.0,7.0,41,0.00,,CLR,0.00,VWS V14.01,2013-03-28 14:40:00,
2013-03-28 10:45:00,43.6,20.3,30.34,WNW,296,6.0,14.0,39,0.00,,CLR,0.00,VWS V14.01,2013-03-28 14:45:00,
2013-03-28 10:50:00,43.5,20.2,30.34,North,349,4.0,14.0,39,0.00,,CLR,0.00,VWS V14.01,2013-03-28 14:50:00,
2013-03-28 10:55:00,43.6,19.7,30.34,NNW,328,5.0,6.0,38,0.00,,CLR,0.00,VWS V14.01,2013-03-28 14:55:00,
2013-03-28 11:00:00,43.6,20.9,30.34,NW,322,2.0,7.0,40,0.00,,CLR,0.00,VWS V14.01,2013-03-28 15:00:00,
2013-03-28 11:05:00,44.4,21.6,30.34,NNW,330,5.0,10.0,40,0.00,,CLR,0.00,VWS V14.01,2013-03-28 15:05:00,
2013-03-28 11:10:00,44.6,21.2,30.34,NW,313,5.0,7.0,39,0.00,,CLR,0.00,VWS V14.01,2013-03-28 15:10:00,
2013-03-28 11:15:00,44.8,20.1,30.34,WNW,302,11.0,15.0,37,0.00,,CLR,0.00,VWS V14.01,2013-03-28 15:15:00,
2013-03-28 11:20:00,44.9,20.2,30.34,NW,314,5.0,9.0,37,0.00,,CLR,0.00,VWS V14.01,2013-03-28 15:20:00,
2013-03-28 11:25:00,45.2,21.7,30.33,North,351,5.0,11.0,39,0.00,,CLR,0.00,VWS V14.01,2013-03-28 15:25:00,
2013-03-28 11:30:00,45.7,19.6,30.34,WNW,300,9.0,12.0,35,0.00,,CLR,0.00,VWS V14.01,2013-03-28 15:30:00,
2013-03-28 11:35:00,45.3,19.9,30.34,NNW,346,5.0,12.0,36,0.00,,CLR,0.00,VWS V14.01,2013-03-28 15:35:00,
2013-03-28 11:40:00,45.5,20.1,30.33,WNW,290,4.0,5.0,36,0.00,,CLR,0.00,VWS V14.01,2013-03-28 15:40:00,
2013-03-28 11:45:00,46.3,22.1,30.33,WNW,288,2.0,4.0,38,0.00,,CLR,0.00,VWS V14.01,2013-03-28 15:45:00,
2013-03-28 11:50:00,46.3,20.2,30.33,NNW,330,1.0,7.0,35,0.00,,CLR,0.00,VWS V14.01,2013-03-28 15:50:00,
2013-03-28 11:55:00,46.6,20.4,30.33,NW,314,7.0,13.0,35,0.00,,CLR,0.00,VWS V14.01,2013-03-28 15:55:00,
2013-03-28 12:00:00,46.9,23.3,30.33,NNW,330,3.0,8.0,39,0.00,,CLR,0.00,VWS V14.01,2013-03-28 16:00:00,
2013-03-28 12:05:00,47.5,21.9,30.33,NNE,27,1.0,3.0,36,0.00,,CLR,0.00,VWS V14.01,2013-03-28 16:05:00,
2013-03-28 12:10:00,48.2,21.2,30.33,NW,325,2.0,3.0,34,0.00,,CLR,0.00,VWS V14.01,2013-03-28 16:10:00,
2013-03-28 12:15:00,47.8,20.1,30.33,WNW,302,2.0,7.0,33,0.00,,CLR,0.00,VWS V14.01,2013-03-28 16:15:00,
2013-03-28 12:20:00,48.0,21.0,30.32,NNW,333,8.0,12.0,34,0.00,,CLR,0.00,VWS V14.01,2013-03-28 16:20:00,
2013-03-28 12:25:00,48.2,20.5,30.32,WNW,300,7.0,10.0,33,0.00,,CLR,0.00,VWS V14.01,2013-03-28 16:25:00,
2013-03-28 12:30:00,48.3,20.5,30.32,WNW,283,5.0,10.0,33,0.00,,CLR,0.00,VWS V14.01,2013-03-28 16:30:00,
2013-03-28 12:35:00,48.1,18.9,30.32,WNW,297,2.0,10.0,31,0.00,,CLR,0.00,VWS V14.01,2013-03-28 16:35:00,
2013-03-28 12:40:00,48.6,22.2,30.31,NW,318,0.0,2.0,35,0.00,,CLR,0.00,VWS V14.01,2013-03-28 16:40:00,
2013-03-28 12:45:00,49.7,22.5,30.32,NW,319,4.0,7.0,34,0.00,,CLR,0.00,VWS V14.01,2013-03-28 16:45:00,
2013-03-28 12:50:00,50.4,21.7,30.31,WNW,287,1.0,5.0,32,0.00,,CLR,0.00,VWS V14.01,2013-03-28 16:50:00,
2013-03-28 12:55:00,51.3,20.9,30.31,NW,325,3.0,7.0,30,0.00,,CLR,0.00,VWS V14.01,2013-03-28 16:55:00,
2013-03-28 13:00:00,50.6,21.1,30.31,NW,325,2.0,4.0,31,0.00,,CLR,0.00,VWS V14.01,2013-03-28 17:00:00,
2013-03-28 13:05:00,50.9,22.8,30.31,NNE,25,4.0,7.0,33,0.00,,CLR,0.00,VWS V14.01,2013-03-28 17:05:00,
2013-03-28 13:10:00,50.6,21.9,30.31,ENE,61,3.0,6.0,32,0.00,,CLR,0.00,VWS V14.01,2013-03-28 17:10:00,
2013-03-28 13:15:00,50.7,20.4,30.31,WNW,284,1.0,8.0,30,0.00,,CLR,0.00,VWS V14.01,2013-03-28 17:15:00,
2013-03-28 13:20:00,50.8,20.5,30.31,NW,305,7.0,7.0,30,0.00,,CLR,0.00,VWS V14.01,2013-03-28 17:20:00,
2013-03-28 13:25:00,51.0,20.7,30.30,NW,314,3.0,7.0,30,0.00,,CLR,0.00,VWS V14.01,2013-03-28 17:25:00,
2013-03-28 13:30:00,50.9,20.6,30.30,NW,305,2.0,8.0,30,0.00,,CLR,0.00,VWS V14.01,2013-03-28 17:30:00,
2013-03-28 13:35:00,51.1,21.5,30.30,NW,318,3.0,6.0,31,0.00,,CLR,0.00,VWS V14.01,2013-03-28 17:35:00,
2013-03-28 13:40:00,50.9,21.4,30.30,NW,315,3.0,7.0,31,0.00,,CLR,0.00,VWS V14.01,2013-03-28 17:40:00,
2013-03-28 13:45:00,50.7,22.7,30.30,NE,41,5.0,9.0,33,0.00,,CLR,0.00,VWS V14.01,2013-03-28 17:45:00,
2013-03-28 13:50:00,51.6,24.9,30.29,NW,318,1.0,4.0,35,0.00,,CLR,0.00,VWS V14.01,2013-03-28 17:50:00,
2013-03-28 13:55:00,51.6,22.0,30.29,NNW,330,6.0,6.0,31,0.00,,CLR,0.00,VWS V14.01,2013-03-28 17:55:00,
2013-03-28 14:00:00,51.7,22.1,30.29,NW,325,3.0,7.0,31,0.00,,CLR,0.00,VWS V14.01,2013-03-28 18:00:00,
2013-03-28 14:05:00,52.0,21.5,30.29,NNW,342,2.0,6.0,30,0.00,,CLR,0.00,VWS V14.01,2013-03-28 18:05:00,
2013-03-28 14:10:00,51.8,20.6,30.29,NW,318,2.0,8.0,29,0.00,,CLR,0.00,VWS V14.01,2013-03-28 18:10:00,
2013-03-28 14:15:00,51.7,20.5,30.28,NW,318,1.0,4.0,29,0.00,,CLR,0.00,VWS V14.01,2013-03-28 18:15:00,
2013-03-28 14:20:00,52.9,24.6,30.28,SW,227,3.0,4.0,33,0.00,,CLR,0.00,VWS V14.01,2013-03-28 18:20:00,
2013-03-28 14:25:00,53.9,22.4,30.28,WNW,295,4.0,10.0,29,0.00,,CLR,0.00,VWS V14.01,2013-03-28 18:25:00,
2013-03-28 14:30:00,53.8,20.6,30.28,SSW,207,4.0,5.0,27,0.00,,CLR,0.00,VWS V14.01,2013-03-28 18:30:00,
2013-03-28 14:35:00,53.6,22.9,30.28,NE,39,3.0,3.0,30,0.00,,CLR,0.00,VWS V14.01,2013-03-28 18:35:00,
2013-03-28 14:40:00,54.2,22.6,30.28,WNW,290,1.0,5.0,29,0.00,,CLR,0.00,VWS V14.01,2013-03-28 18:40:00,
2013-03-28 14:45:00,55.0,22.5,30.28,NW,324,4.0,4.0,28,0.00,,CLR,0.00,VWS V14.01,2013-03-28 18:45:00,
2013-03-28 14:50:00,54.2,21.8,30.27,WNW,289,2.0,8.0,28,0.00,,CLR,0.00,VWS V14.01,2013-03-28 18:50:00,
2013-03-28 14:55:00,54.3,21.9,30.27,WNW,300,3.0,4.0,28,0.00,,CLR,0.00,VWS V14.01,2013-03-28 18:55:00,
2013-03-28 15:00:00,54.5,21.2,30.27,NNE,22,2.0,4.0,27,0.00,,CLR,0.00,VWS V14.01,2013-03-28 19:00:00,
2013-03-28 15:05:00,53.7,22.2,30.27,North,8,0.0,2.0,29,0.00,,CLR,0.00,VWS V14.01,2013-03-28 19:05:00,
2013-03-28 15:10:00,54.2,22.6,30.27,NW,311,4.0,8.0,29,0.00,,CLR,0.00,VWS V14.01,2013-03-28 19:10:00,
2013-03-28 15:15:00,54.0,21.6,30.27,NW,319,1.0,4.0,28,0.00,,CLR,0.00,VWS V14.01,2013-03-28 19:15:00,
2013-03-28 15:20:00,54.9,23.3,30.26,West,274,1.0,4.0,29,0.00,,CLR,0.00,VWS V14.01,2013-03-28 19:20:00,
2013-03-28 15:25:00,54.2,22.6,30.26,NW,307,0.0,4.0,29,0.00,,CLR,0.00,VWS V14.01,2013-03-28 19:25:00,
2013-03-28 15:30:00,53.7,20.5,30.26,SW,222,0.0,2.0,27,0.00,,CLR,0.00,VWS V14.01,2013-03-28 19:30:00,
2013-03-28 15:35:00,53.4,22.0,30.26,NNW,330,1.0,9.0,29,0.00,,CLR,0.00,VWS V14.01,2013-03-28 19:35:00,
2013-03-28 15:40:00,53.9,22.4,30.25,NW,314,6.0,6.0,29,0.00,,CLR,0.00,VWS V14.01,2013-03-28 19:40:00,
2013-03-28 15:45:00,53.6,21.3,30.25,WNW,283,8.0,8.0,28,0.00,,CLR,0.00,VWS V14.01,2013-03-28 19:45:00,
2013-03-28 15:50:00,53.4,22.0,30.25,West,273,5.0,7.0,29,0.00,,CLR,0.00,VWS V14.01,2013-03-28 19:50:00,
2013-03-28 15:55:00,53.4,22.0,30.25,North,349,7.0,7.0,29,0.00,,CLR,0.00,VWS V14.01,2013-03-28 19:55:00,
2013-03-28 16:00:00,53.3,22.7,30.24,NNE,32,3.0,3.0,30,0.00,,CLR,0.00,VWS V14.01,2013-03-28 20:00:00,
2013-03-28 16:05:00,53.5,22.9,30.24,WNW,297,5.0,12.0,30,0.00,,CLR,0.00,VWS V14.01,2013-03-28 20:05:00,
2013-03-28 16:10:00,53.6,22.1,30.24,WNW,292,5.0,6.0,29,0.00,,CLR,0.00,VWS V14.01,2013-03-28 20:10:00,
2013-03-28 16:15:00,53.7,22.2,30.24,WNW,291,2.0,4.0,29,0.00,,CLR,0.00,VWS V14.01,2013-03-28 20:15:00,
2013-03-28 16:20:00,53.5,22.0,30.24,NNW,342,2.0,7.0,29,0.00,,CLR,0.00,VWS V14.01,2013-03-28 20:20:00,
2013-03-28 16:25:00,53.5,21.2,30.24,NW,316,2.0,5.0,28,0.00,,CLR,0.00,VWS V14.01,2013-03-28 20:25:00,
2013-03-28 16:30:00,53.6,20.5,30.24,NNE,30,5.0,8.0,27,0.00,,CLR,0.00,VWS V14.01,2013-03-28 20:30:00,
2013-03-28 16:35:00,53.2,20.1,30.24,NNW,333,5.0,7.0,27,0.00,,CLR,0.00,VWS V14.01,2013-03-28 20:35:00,
2013-03-28 16:40:00,53.1,20.9,30.24,WNW,297,3.0,7.0,28,0.00,,CLR,0.00,VWS V14.01,2013-03-28 20:40:00,
2013-03-28 16:45:00,52.8,21.4,30.24,NNW,330,2.0,4.0,29,0.00,,CLR,0.00,VWS V14.01,2013-03-28 20:45:00,
2013-03-28 16:50:00,53.2,21.8,30.24,WNW,302,7.0,12.0,29,0.00,,CLR,0.00,VWS V14.01,2013-03-28 20:50:00,
2013-03-28 16:55:00,52.6,20.4,30.24,NW,316,4.0,9.0,28,0.00,,CLR,0.00,VWS V14.01,2013-03-28 20:55:00,
2013-03-28 17:00:00,52.7,21.4,30.24,NNE,13,3.0,4.0,29,0.00,,CLR,0.00,VWS V14.01,2013-03-28 21:00:00,
2013-03-28 17:05:00,52.9,20.7,30.24,WNW,283,3.0,6.0,28,0.00,,CLR,0.00,VWS V14.01,2013-03-28 21:05:00,
2013-03-28 17:10:00,52.8,21.4,30.24,NNW,330,5.0,6.0,29,0.00,,CLR,0.00,VWS V14.01,2013-03-28 21:10:00,
2013-03-28 17:15:00,52.8,21.4,30.24,North,10,5.0,7.0,29,0.00,,CLR,0.00,VWS V14.01,2013-03-28 21:15:00,
2013-03-28 17:20:00,52.6,21.3,30.24,NW,316,4.0,7.0,29,0.00,,CLR,0.00,VWS V14.01,2013-03-28 21:20:00,
2013-03-28 17:25:00,52.5,21.2,30.24,NW,313,3.0,6.0,29,0.00,,CLR,0.00,VWS V14.01,2013-03-28 21:25:00,
2013-03-28 17:30:00,52.6,20.4,30.24,NNW,330,2.0,8.0,28,0.00,,CLR,0.00,VWS V14.01,2013-03-28 21:30:00,
2013-03-28 17:35:00,52.4,19.4,30.24,North,353,7.0,14.0,27,0.00,,CLR,0.00,VWS V14.01,2013-03-28 21:35:00,
2013-03-28 17:40:00,52.3,20.2,30.25,NW,311,8.0,9.0,28,0.00,,CLR,0.00,VWS V14.01,2013-03-28 21:40:00,
2013-03-28 17:45:00,52.3,21.0,30.25,NNW,330,4.0,7.0,29,0.00,,CLR,0.00,VWS V14.01,2013-03-28 21:45:00,
2013-03-28 17:50:00,52.4,20.3,30.25,WNW,300,10.0,12.0,28,0.00,,CLR,0.00,VWS V14.01,2013-03-28 21:50:00,
2013-03-28 17:55:00,52.2,20.1,30.25,NW,319,6.0,9.0,28,0.00,,CLR,0.00,VWS V14.01,2013-03-28 21:55:00,
2013-03-28 18:00:00,52.1,20.0,30.25,NNW,336,2.0,9.0,28,0.00,,CLR,0.00,VWS V14.01,2013-03-28 22:00:00,
2013-03-28 18:05:00,52.1,20.0,30.25,NW,322,5.0,5.0,28,0.00,,CLR,0.00,VWS V14.01,2013-03-28 22:05:00,
2013-03-28 18:10:00,51.9,20.7,30.25,NW,321,5.0,12.0,29,0.00,,CLR,0.00,VWS V14.01,2013-03-28 22:10:00,
2013-03-28 18:15:00,51.7,20.5,30.25,NW,305,9.0,9.0,29,0.00,,CLR,0.00,VWS V14.01,2013-03-28 22:15:00,
2013-03-28 18:20:00,51.5,20.3,30.25,NW,325,3.0,4.0,29,0.00,,CLR,0.00,VWS V14.01,2013-03-28 22:20:00,
2013-03-28 18:25:00,51.5,20.3,30.26,NW,307,6.0,10.0,29,0.00,,CLR,0.00,VWS V14.01,2013-03-28 22:25:00,
2013-03-28 18:30:00,51.4,20.2,30.26,NNW,330,4.0,8.0,29,0.00,,CLR,0.00,VWS V14.01,2013-03-28 22:30:00,
2013-03-28 18:35:00,51.3,19.3,30.26,NNW,333,1.0,8.0,28,0.00,,CLR,0.00,VWS V14.01,2013-03-28 22:35:00,
2013-03-28 18:40:00,51.1,20.8,30.26,WNW,302,7.0,7.0,30,0.00,,CLR,0.00,VWS V14.01,2013-03-28 22:40:00,
2013-03-28 18:45:00,50.9,20.6,30.26,WNW,295,4.0,6.0,30,0.00,,CLR,0.00,VWS V14.01,2013-03-28 22:45:00,
2013-03-28 18:50:00,50.8,21.3,30.26,NW,311,5.0,8.0,31,0.00,,CLR,0.00,VWS V14.01,2013-03-28 22:50:00,
2013-03-28 18:55:00,50.7,21.2,30.26,NW,319,5.0,7.0,31,0.00,,CLR,0.00,VWS V14.01,2013-03-28 22:55:00,
2013-03-28 19:00:00,50.6,21.1,30.27,WNW,282,5.0,6.0,31,0.00,,CLR,0.00,VWS V14.01,2013-03-28 23:00:00,
2013-03-28 19:05:00,50.5,21.8,30.27,NW,321,4.0,4.0,32,0.00,,CLR,0.00,VWS V14.01,2013-03-28 23:05:00,
2013-03-28 19:10:00,50.4,21.7,30.27,WNW,298,10.0,10.0,32,0.00,,CLR,0.00,VWS V14.01,2013-03-28 23:10:00,
2013-03-28 19:15:00,50.1,22.1,30.27,NW,304,7.0,7.0,33,0.00,,CLR,0.00,VWS V14.01,2013-03-28 23:15:00,
2013-03-28 19:21:00,49.9,21.2,30.27,NW,321,4.0,6.0,32,0.00,,CLR,0.00,VWS V14.01,2013-03-28 23:21:00,
2013-03-28 19:25:00,49.7,22.5,30.27,NW,319,3.0,3.0,34,0.00,,CLR,0.00,VWS V14.01,2013-03-28 23:25:00,
2013-03-28 19:30:00,49.4,22.2,30.27,NW,322,2.0,5.0,34,0.00,,CLR,0.00,VWS V14.01,2013-03-28 23:30:00,
2013-03-28 19:36:00,49.1,22.6,30.27,NW,314,2.0,4.0,35,0.00,,CLR,0.00,VWS V14.01,2013-03-28 23:36:00,
2013-03-28 19:41:00,48.8,21.7,30.28,North,353,2.0,6.0,34,0.00,,CLR,0.00,VWS V14.01,2013-03-28 23:41:00,
2013-03-28 19:46:00,48.5,22.1,30.28,NW,316,2.0,3.0,35,0.00,,CLR,0.00,VWS V14.01,2013-03-28 23:46:00,
2013-03-28 19:51:00,48.2,22.5,30.28,NW,322,2.0,2.0,36,0.00,,CLR,0.00,VWS V14.01,2013-03-28 23:51:00,
2013-03-28 19:56:00,47.9,22.9,30.28,NW,314,3.0,3.0,37,0.00,,CLR,0.00,VWS V14.01,2013-03-28 23:56:00,
2013-03-28 20:01:00,47.7,22.1,30.28,NW,307,1.0,2.0,36,0.00,,CLR,0.00,VWS V14.01,2013-03-29 00:01:00,
2013-03-28 20:06:00,47.4,22.5,30.28,WNW,295,2.0,3.0,37,0.00,,CLR,0.00,VWS V14.01,2013-03-29 00:06:00,
2013-03-28 20:11:00,47.2,22.3,30.29,NW,305,1.0,2.0,37,0.00,,CLR,0.00,VWS V14.01,2013-03-29 00:11:00,
2013-03-28 20:16:00,47.1,22.2,30.29,NW,311,2.0,4.0,37,0.00,,CLR,0.00,VWS V14.01,2013-03-29 00:16:00,
2013-03-28 20:21:00,46.7,22.5,30.29,WNW,293,1.0,2.0,38,0.00,,CLR,0.00,VWS V14.01,2013-03-29 00:21:00,
2013-03-28 20:26:00,45.6,23.3,30.30,SW,232,0.0,1.0,41,0.00,,CLR,0.00,VWS V14.01,2013-03-29 00:26:00,
2013-03-28 20:31:00,44.9,22.6,30.30,WSW,241,1.0,1.0,41,0.00,,CLR,0.00,VWS V14.01,2013-03-29 00:31:00,
2013-03-28 20:36:00,44.7,22.5,30.30,West,279,0.0,0.0,41,0.00,,CLR,0.00,VWS V14.01,2013-03-29 00:36:00,
2013-03-28 20:41:00,44.4,22.8,30.30,West,280,0.0,0.0,42,0.00,,CLR,0.00,VWS V14.01,2013-03-29 00:41:00,
2013-03-28 20:46:00,43.7,22.7,30.30,SW,229,0.0,0.0,43,0.00,,CLR,0.00,VWS V14.01,2013-03-29 00:46:00,
2013-03-28 20:51:00,42.9,22.5,30.30,SW,229,0.0,0.0,44,0.00,,CLR,0.00,VWS V14.01,2013-03-29 00:51:00,
2013-03-28 20:56:00,42.3,23.0,30.30,SW,229,0.0,0.0,46,0.00,,CLR,0.00,VWS V14.01,2013-03-29 00:56:00,
2013-03-28 21:01:00,41.9,23.2,30.30,SW,229,0.0,0.0,47,0.00,,CLR,0.00,VWS V14.01,2013-03-29 01:01:00,
2013-03-28 21:06:00,41.2,23.0,30.31,SW,229,0.0,0.0,48,0.00,,CLR,0.00,VWS V14.01,2013-03-29 01:06:00,
2013-03-28 21:11:00,40.5,22.9,30.31,SW,229,0.0,0.0,49,0.00,,CLR,0.00,VWS V14.01,2013-03-29 01:11:00,
2013-03-28 21:16:00,40.4,22.8,30.31,SW,229,0.0,0.0,49,0.00,,CLR,0.00,VWS V14.01,2013-03-29 01:16:00,
2013-03-28 21:21:00,40.6,23.0,30.31,SW,221,1.0,1.0,49,0.00,,CLR,0.00,VWS V14.01,2013-03-29 01:21:00,
2013-03-28 21:26:00,40.6,23.4,30.31,SW,223,1.0,1.0,50,0.00,,CLR,0.00,VWS V14.01,2013-03-29 01:26:00,
2013-03-28 21:31:00,40.7,23.0,30.31,NW,307,1.0,1.0,49,0.00,,CLR,0.00,VWS V14.01,2013-03-29 01:31:00,
2013-03-28 21:36:00,40.2,24.5,30.32,NW,307,0.0,0.0,53,0.00,,CLR,0.00,VWS V14.01,2013-03-29 01:36:00,
2013-03-28 21:41:00,39.6,24.8,30.32,NW,307,0.0,0.0,55,0.00,,CLR,0.00,VWS V14.01,2013-03-29 01:41:00,
2013-03-28 21:46:00,38.9,25.0,30.32,NW,307,0.0,0.0,57,0.00,,CLR,0.00,VWS V14.01,2013-03-29 01:46:00,
2013-03-28 21:51:00,38.2,24.7,30.32,NW,308,0.0,0.0,58,0.00,,CLR,0.00,VWS V14.01,2013-03-29 01:51:00,
2013-03-28 21:56:00,37.6,24.6,30.32,NW,307,0.0,0.0,59,0.00,,CLR,0.00,VWS V14.01,2013-03-29 01:56:00,
2013-03-28 22:01:00,36.9,24.3,30.32,SW,217,2.0,2.0,60,0.00,,CLR,0.00,VWS V14.01,2013-03-29 02:01:00,
2013-03-28 22:06:00,37.0,24.4,30.32,SW,225,0.0,0.0,60,0.00,,CLR,0.00,VWS V14.01,2013-03-29 02:06:00,
2013-03-28 22:11:00,36.8,25.0,30.32,SSE,166,1.0,1.0,62,0.00,,CLR,0.00,VWS V14.01,2013-03-29 02:11:00,
2013-03-28 22:16:00,36.3,23.8,30.33,SSE,166,0.0,0.0,60,0.00,,CLR,0.00,VWS V14.01,2013-03-29 02:16:00,
2013-03-28 22:21:00,36.1,24.4,30.33,SSE,166,1.0,2.0,62,0.00,,CLR,0.00,VWS V14.01,2013-03-29 02:21:00,
2013-03-28 22:26:00,35.9,24.5,30.33,SSE,166,0.0,0.0,63,0.00,,CLR,0.00,VWS V14.01,2013-03-29 02:26:00,
2013-03-28 22:31:00,35.7,24.0,30.33,SSE,167,0.0,0.0,62,0.00,,CLR,0.00,VWS V14.01,2013-03-29 02:31:00,
2013-03-28 22:36:00,35.5,23.8,30.33,SSE,166,0.0,0.0,62,0.00,,CLR,0.00,VWS V14.01,2013-03-29 02:36:00,
2013-03-28 22:41:00,35.3,24.7,30.33,SW,225,1.0,1.0,65,0.00,,CLR,0.00,VWS V14.01,2013-03-29 02:41:00,
2013-03-28 22:46:00,35.3,24.7,30.33,SW,229,0.0,0.0,65,0.00,,CLR,0.00,VWS V14.01,2013-03-29 02:46:00,
2013-03-28 22:51:00,35.2,25.4,30.33,SW,229,0.0,0.0,67,0.00,,CLR,0.00,VWS V14.01,2013-03-29 02:51:00,
2013-03-28 22:56:00,35.0,25.5,30.33,SW,231,0.0,0.0,68,0.00,,CLR,0.00,VWS V14.01,2013-03-29 02:56:00,
2013-03-28 23:01:00,34.4,25.3,30.33,SW,229,0.0,0.0,69,0.00,,CLR,0.00,VWS V14.01,2013-03-29 03:01:00,
2013-03-28 23:06:00,33.9,25.2,30.33,SSW,203,0.0,0.0,70,0.00,,CLR,0.00,VWS V14.01,2013-03-29 03:06:00,
2013-03-28 23:11:00,33.5,24.8,30.33,SSW,194,0.0,0.0,70,0.00,,CLR,0.00,VWS V14.01,2013-03-29 03:11:00,
2013-03-28 23:16:00,33.1,24.4,30.34,SSW,194,0.0,0.0,70,0.00,,CLR,0.00,VWS V14.01,2013-03-29 03:16:00,
2013-03-28 23:21:00,32.8,23.8,30.33,SSW,194,0.0,0.0,69,0.00,,CLR,0.00,VWS V14.01,2013-03-29 03:21:00,
2013-03-28 23:26:00,32.9,24.5,30.34,North,8,2.0,2.0,71,0.00,,CLR,0.00,VWS V14.01,2013-03-29 03:26:00,
2013-03-28 23:31:00,32.4,24.4,30.34,North,4,0.0,0.0,72,0.00,,CLR,0.00,VWS V14.01,2013-03-29 03:31:00,
2013-03-28 23:36:00,32.7,24.7,30.34,WSW,239,0.0,0.0,72,0.00,,CLR,0.00,VWS V14.01,2013-03-29 03:36:00,
2013-03-28 23:41:00,32.9,24.9,30.34,WSW,239,0.0,0.0,72,0.00,,CLR,0.00,VWS V14.01,2013-03-29 03:41:00,
2013-03-28 23:46:00,32.6,24.6,30.34,SW,224,0.0,0.0,72,0.00,,CLR,0.00,VWS V14.01,2013-03-29 03:46:00,
2013-03-28 23:52:00,32.0,24.0,30.34,SSE,163,0.0,0.0,72,0.00,,CLR,0.00,VWS V14.01,2013-03-29 03:52:00,
2013-03-28 23:58:00,31.8,24.5,30.34,North,0,0.0,0.0,74,0.00,,CLR,0.00,VWS V14.01,2013-03-29 03:58:00,